Location: Toronto
(43.6701°N, 79.3869°W)
Time: 13:57:40
(UTC-04:00)

ARIANE 6 FM1 Upper Stage - Visible Passes

Search period start: 08 June 2026 00:00
Search period end: 18 June 2026 00:00
Orbit: 528 x 599 km, 62.0° (Epoch: 8 June)

Date Brightness Start Highest point End Pass type
(mag) Time Alt. Az. Time Alt. Az. Time Alt. Az.
8 Jun 5.1 02:09:13 12° ESE 02:09:13 12° ESE 02:10:32 10° E visible
8 Jun 2.6 03:45:10 28° SW 03:47:19 78° NW 03:51:27 10° NE visible
9 Jun 4.7 02:08:29 17° ESE 02:08:29 17° ESE 02:10:52 10° ENE visible
9 Jun 3.1 03:44:26 24° WSW 03:46:42 55° NW 03:50:45 10° NNE visible
10 Jun 4.2 02:07:42 25° ESE 02:07:42 25° ESE 02:10:42 10° ENE visible
10 Jun 3.6 03:43:38 20° WSW 03:46:06 39° NW 03:49:59 10° NNE visible
11 Jun 3.6 02:06:51 35° ESE 02:06:51 35° ESE 02:10:20 10° NE visible
11 Jun 4.1 03:42:47 15° W 03:45:32 29° NW 03:49:10 10° NNE visible
12 Jun 3.0 02:05:57 52° ESE 02:05:57 52° ESE 02:09:48 10° NE visible
12 Jun 4.6 03:41:53 11° W 03:45:00 23° NW 03:48:18 10° NNE visible
13 Jun 2.5 02:04:59 77° SE 02:05:04 78° SE 02:09:12 10° NE visible
13 Jun 4.9 03:41:37 10° WNW 03:44:30 18° NW 03:47:21 10° N visible
14 Jun 2.6 02:03:58 66° W 02:04:23 74° NW 02:08:31 10° NE visible
14 Jun 5.2 03:41:43 10° WNW 03:44:02 14° NNW 03:46:19 10° N visible
15 Jun 4.9 00:26:56 14° E 00:26:56 14° E 00:28:00 10° ENE visible
15 Jun 3.2 02:02:52 43° W 02:03:43 52° NW 02:07:46 10° NNE visible
15 Jun 5.4 03:42:04 10° NW 03:43:35 12° NNW 03:45:04 10° N visible
16 Jun 4.4 00:25:45 21° E 00:25:45 21° E 00:27:45 10° ENE visible
16 Jun 3.8 02:01:41 28° W 02:03:06 37° NW 02:06:57 10° NNE visible
17 Jun 3.7 00:24:30 32° E 00:24:30 32° E 00:27:19 10° NE visible
17 Jun 4.4 02:00:24 19° W 02:02:30 28° NW 02:06:06 10° NNE visible
